Location: Saint-Restitut
(44.3351°N, 4.7915°E)
Time: 03:28:45
(UTC+00:00)

Meteor PRIRODA - Pass Details

Date: 03 February 2023
Orbit: 474 x 489 km, 97.6° (Epoch: 27 March)

Event Time Altitude Azimuth Distance (km) Brightness Sun altitude
Rises 17:38:52 0° 177° (S) 2,509 7.3 -8.7°
Reaches altitude 10° 17:40:57 10° 182° (S) 1,636 6.5 -9.0°
Maximum altitude 17:44:23 52° 260° (W) 594 4.5 -9.6°
Drops below altitude 10° 17:47:51 10° 338° (NNW) 1,652 6.4 -10.2°
Sets 17:49:58 0° 343° (NNW) 2,537 7.3 -10.6°
